STRAND-1

Last updated on Sun Jun 21 2026 00:03:20 GMT+0000 (Coordinated Universal Time)

1 39090U 13009E 26171.39785274 .00000190 00000+0 78154-4 0 9994 2 39090 98.3923 351.5531 0007895 214.6818 145.3855 14.37164728697522
UTC large
Height (km)
Speed (km/s)
/
Latitude / Longitude
Inclination (degrees)
Orbital Period (minutes)
Azimuth
Elevation
Range (km)
Doppler Factor

Next 0 passes for location: London (51.5072 / 0.1276)

No passes found over London.
STRAND-1